User: anonymous   Login
Location: Unspecified
(0.0000°N, 0.0000°E)
Time: 09:03:34
(UTC+00:00)
Language:

Afristar - Orbit

View from above orbital plane
View from above orbital plane
View from above satellite
View from above satellite

Ground track
Ground track

The orbit data is extracted from the following two-line orbital elements,

1 25515U 98063A   18018.11090987 -.00000133 +00000-0 +00000-0 0  9995
2 25515 003.7511 067.6901 0007368 239.9215 142.1812 00.99006451070146
Epoch (UTC): 18 January 2018 02:39:42
Eccentricity: 0.0007368
inclination: 3.7511°
perigee height: 36113 km
apogee height: 36176 km
right ascension of ascending node: 67.6901°
argument of perigee: 239.9215°
revolutions per day: 0.99006451
mean anomaly at epoch: 142.1812°
orbit number at epoch: 7014

The dashed part of the orbit path shows where the satellite is in the earth's shadow,  

DLR